This is the latest recevied weather packets stored in our database for station/object 4S6DRJ-13. If no packets are shown the sender has not sent any weather packets the latest 10 day(s).
| Time | Temp. | Humidity | Pressure | Rain* | Wind** | Luminosity | Snow |
|---|---|---|---|---|---|---|---|
| 1788287240 | 27.78° C | 82% | 1011.2 hPa | 0 mm | 1.79 m/s, 213° | 0 W/m² | - |
| 1788287179 | 27.78° C | 82% | 1011.1 hPa | 0 mm | 0.45 m/s, 241° | 0 W/m² | - |
| 1788287118 | 28.33° C | 82% | 1011.1 hPa | 0 mm | 0.89 m/s, 216° | 0 W/m² | - |
| 1788287057 | 28.33° C | 82% | 1011 hPa | 0 mm | 0.89 m/s, 253° | 0 W/m² | - |
| 1788286996 | 28.33° C | 82% | 1010.9 hPa | 0 mm | 0.45 m/s, 216° | 0 W/m² | - |
| 1788286935 | 28.33° C | 82% | 1011.2 hPa | 0 mm | 0 m/s | 0 W/m² | - |
| 1788286875 | 28.33° C | 82% | 1011 hPa | 0 mm | 0.45 m/s, 211° | 0 W/m² | - |
| 1788286814 | 28.33° C | 82% | 1011.1 hPa | 0 mm | 0.89 m/s, 243° | 0 W/m² | - |
| 1788286753 | 28.33° C | 82% | 1011.1 hPa | 0 mm | 1.34 m/s, 157° | 0 W/m² | - |
| 1788286692 | 28.33° C | 82% | 1011.1 hPa | 0 mm | 0.89 m/s, 216° | 0 W/m² | - |
| 1788286632 | 28.33° C | 82% | 1011.2 hPa | 0 mm | 1.79 m/s, 239° | 0 W/m² | - |
| 1788286570 | 28.33° C | 82% | 1011.3 hPa | 0 mm | 0 m/s | 0 W/m² | - |
| 1788286509 | 28.33° C | 82% | 1011.2 hPa | 0 mm | 1.34 m/s, 249° | 0 W/m² | - |
| 1788286448 | 28.33° C | 82% | 1011.2 hPa | 0 mm | 0.89 m/s, 233° | 0 W/m² | - |
| 1788286387 | 28.33° C | 82% | 1011.3 hPa | 0 mm | 1.79 m/s, 332° | 0 W/m² | - |
| 1788286326 | 28.33° C | 82% | 1011.4 hPa | 0 mm | 0.89 m/s, 201° | 0 W/m² | - |
| 1788286265 | 28.33° C | 82% | 1011.3 hPa | 0 mm | 0.89 m/s, 230° | 0 W/m² | - |
| 1788286204 | 28.33° C | 83% | 1011.1 hPa | 0 mm | 1.79 m/s, 236° | 0 W/m² | - |
| 1788286143 | 28.33° C | 83% | 1011.2 hPa | 0 mm | 0.89 m/s, 269° | 0 W/m² | - |
| 1788286082 | 28.33° C | 83% | 1011.2 hPa | 0 mm | 0.45 m/s, 236° | 0 W/m² | - |
| 1788286021 | 28.33° C | 83% | 1011.3 hPa | 0 mm | 0.89 m/s, 247° | 0 W/m² | - |
| 1788285960 | 28.33° C | 83% | 1011.4 hPa | 0 mm | 1.34 m/s, 313° | 0 W/m² | - |
| 1788285899 | 28.33° C | 83% | 1011.4 hPa | 0 mm | 1.79 m/s, 86° | 0 W/m² | - |
| 1788285838 | 28.33° C | 83% | 1011.1 hPa | 0 mm | 0.89 m/s, 202° | 0 W/m² | - |
| 1788285777 | 28.33° C | 83% | 1011.3 hPa | 0 mm | 1.34 m/s, 265° | 0 W/m² | - |
* Rain latest hour (hover to see other rain measurements)
** Current wind speed in m/s (hover to see current wind gust speed)